Weather History for Broken Bow, NE

Change the Weather History Date:

Wednesday, March 6, 2013

  Actual Average Record
Temperature  
Mean Temperature -4 °C 1 °C  
Max Temperature 5 °C 8 °C 26 °C (1972)
Min Temperature -13 °C -6 °C -28 °C (1989)
Degree Days  
Heating Degree Days 40 31  
Month to date heating degree days 214 191  
Cooling Degree Days 0 0  
Month to date cooling degree days 0 0  
Year to date cooling degree days 0 0  
Moisture  
Dew Point -9 °C    
Average Humidity 66    
Maximum Humidity 92    
Minimum Humidity 40    
Precipitation  
Precipitation 0.00 mm 0.51 mm 2.54 mm (1931)
Sea Level Pressure  
Sea Level Pressure 1025 hPa    
Wind  
Wind Speed 16 km/h (SSE)    
Max Wind Speed 40 km/h    
Max Gust Speed 56 km/h    
Visibility 16 kilometers    
Events      
T = Trace of Precipitation, MM = Missing Value Source: NWS Daily Summary

Daily Weather History Graph

Daily Weather History Graph

Search for Another Location

Airport:

Trip Planner

Search our weather history database for the weather conditions in past years. The results will help you decide how hot, cold, wet, or windy it might be!

Date:

Astronomy

Mar. 06, 2013 Rise Set
Actual Time 7:04 AM CST 6:35 PM CST
Civil Twilight 6:37 AM CST 7:03 PM CST
Nautical Twilight 6:05 AM CST 7:35 PM CST
Astronomical Twilight 5:32 AM CST 8:07 PM CST
Moon 3:18 AM CST (3/6) 1:16 PM CST (3/6)
Length of Visible Light 12h 25m
Length of Day
11h 30m
Waning Crescent, 29% of the Moon is Illuminated
Mar 6
Waning Crescent
Mar 11
New
Mar 19
First Quarter
Mar 27
Full
Apr 2
Last Quarter

Hourly Weather History & Observations

Time (CST) Temp. Windchill Dew Point Humidity Pressure Visibility Wind Dir Wind Speed Gust Speed Precip Events Conditions
12:53 AM -8.3 °C - -11.1 °C 81% 1029.8 hPa 16.1 km Calm Calm - N/A   Clear
1:53 AM -8.9 °C - -11.1 °C 84% 1030.0 hPa 16.1 km Calm Calm - N/A   Clear
2:53 AM -10.6 °C - -12.2 °C 88% 1029.9 hPa 16.1 km Calm Calm - N/A   Clear
3:53 AM -11.1 °C - -12.8 °C 88% 1029.3 hPa 16.1 km Calm Calm - N/A   Clear
4:53 AM -11.1 °C - -12.8 °C 88% 1029.2 hPa 16.1 km Calm Calm - N/A   Clear
5:53 AM -12.0 °C - -13.0 °C 92% 1025.6 hPa 16.1 km Calm Calm - N/A   Clear
6:53 AM -12.2 °C - -13.9 °C 87% 1029.9 hPa 16.1 km Calm Calm - N/A   Clear
7:53 AM -9.4 °C -12.6 °C -11.1 °C 88% 1029.8 hPa 16.1 km SE 5.6 km/h / 1.5 m/s - N/A   Clear
8:53 AM -6.7 °C -13.0 °C -8.9 °C 85% 1029.9 hPa 16.1 km SSE 16.7 km/h / 4.6 m/s - N/A   Clear
9:53 AM -4.4 °C -10.2 °C -7.8 °C 77% 1029.4 hPa 16.1 km SSE 16.7 km/h / 4.6 m/s - N/A   Clear
10:53 AM -2.2 °C -8.0 °C -7.8 °C 66% 1028.3 hPa 16.1 km SSE 20.4 km/h / 5.7 m/s 35.2 km/h / 9.8 m/s N/A   Clear
11:53 AM 0.0 °C -5.8 °C -7.8 °C 56% 1027.3 hPa 16.1 km SE 24.1 km/h / 6.7 m/s 38.9 km/h / 10.8 m/s N/A   Clear
12:53 PM 2.2 °C -3.2 °C -7.8 °C 48% 1025.2 hPa 16.1 km SSE 25.9 km/h / 7.2 m/s 46.3 km/h / 12.9 m/s N/A   Clear
1:53 PM 3.3 °C -2.4 °C -7.8 °C 45% 1023.2 hPa 16.1 km SE 33.3 km/h / 9.3 m/s 42.6 km/h / 11.8 m/s N/A   Clear
2:53 PM 4.4 °C -1.0 °C -7.8 °C 41% 1022.5 hPa 16.1 km South 33.3 km/h / 9.3 m/s 51.9 km/h / 14.4 m/s N/A   Clear
3:53 PM 5.0 °C -0.6 °C -6.7 °C 43% 1022.1 hPa 16.1 km South 38.9 km/h / 10.8 m/s 55.6 km/h / 15.4 m/s N/A   Clear
4:53 PM 3.9 °C -1.6 °C -6.1 °C 49% 1021.9 hPa 16.1 km SSE 33.3 km/h / 9.3 m/s 44.4 km/h / 12.3 m/s N/A   Clear
5:53 PM 2.8 °C -2.9 °C -6.1 °C 52% 1021.4 hPa 16.1 km South 31.5 km/h / 8.7 m/s 40.7 km/h / 11.3 m/s N/A   Clear
6:53 PM 0.6 °C -3.6 °C -6.1 °C 61% 1020.9 hPa 16.1 km SSE 14.8 km/h / 4.1 m/s 35.2 km/h / 9.8 m/s N/A   Clear
7:53 PM -0.6 °C -5.1 °C -6.1 °C 67% 1021.2 hPa 16.1 km SE 14.8 km/h / 4.1 m/s - N/A   Clear
8:53 PM -1.1 °C -6.7 °C -6.7 °C 66% 1020.6 hPa 16.1 km SE 20.4 km/h / 5.7 m/s 35.2 km/h / 9.8 m/s N/A   Clear
9:53 PM -2.2 °C -7.4 °C -6.7 °C 72% 1020.8 hPa 16.1 km SE 16.7 km/h / 4.6 m/s - N/A   Clear
10:53 PM -2.8 °C -7.8 °C -6.7 °C 75% 1019.9 hPa 16.1 km SE 14.8 km/h / 4.1 m/s - N/A   Clear
11:53 PM -3.3 °C -8.4 °C -6.1 °C 81% 1019.1 hPa 16.1 km SE 14.8 km/h / 4.1 m/s - N/A   Clear